Tracking 33176 objects as of 12-Feb-2026
HD Live streaming from Space Station
objects crossing your sky now

FLOCK 4G 15

Track FLOCK 4G 15 now!
10-day predictions
FLOCK 4G 15 is classified as:


NORAD ID: 62678
Int'l Code: 2025-009BX
Perigee: 489.2 km
Apogee: 497.0 km
Inclination: 97.4 °
Period: 94.3 minutes
Semi major axis: 6864 km
RCS: Unknown
Launch date: January 14, 2025
Source: United States (US)
Launch site: AIR FORCE WESTERN TEST RANGE (AFWTR)
Your satellite tracking list
Your tracking list is empty




NASA's NSSDC Master Catalog

Two Line Element Set (TLE):
1 62678U 25009BX  26042.76660735  .00011669  00000-0  44774-3 0  9991
2 62678  97.4101 125.4361 0005698  52.8676 307.3082 15.26620537117398
Source of the keplerian elements: AFSPC